Location: Trebic
(49.2170°N, 15.8830°E)
Time: 18:10:18
(UTC+02:00)

Transit 4A - Pass Details

Date: 26 August 2019
Orbit: 867 x 978 km, 66.8° (Epoch: 17 October)

Event Time Altitude Azimuth Distance (km) Brightness Sun altitude
Rises 00:00:00 0° 316° (NW) 3,668 11.9 -28.8°
Reaches altitude 10° 00:03:28 10° 334° (NNW) 2,705 11.2 -29.0°
Maximum altitude 00:07:47 19° 18° (NNE) 2,113 10.3 -29.1°
Drops below altitude 10° 00:12:03 10° 62° (ENE) 2,652 10.4 -29.3°
Sets 00:15:24 0° 80° (E) 3,572 10.9 -29.4°
